Showing default

IRIDIUM 139, 42963

Orbit data source: Space-Track

IRIDIUM 139, 42963 is a payload satellite owned by Iridium (US) in LEO that was launched on Mon, 09 Oct 2017 UTC via an FALCON 9 launch vehicle from the Air Force Western Test Range (AFWTR). Payload-class satellites include a variety of spacecraft equipped with specific instruments for various scientific and technological missions. These include communications satellites like Starlink; space stations such as the ISS; scientific satellites like the Hubble; Earth observation satellites from companies like Planet Labs, Umbra, and HawkEye 360; GPS; miniature CubeSats for education and research; and military/defense satellites.

Loading next visibility...
Identifier
42963, 2017-061J
Orbit
LEO
Country
Flag of USUS
Related business
Manufacturer
OATK SSG Gilbert
Mission
Operational Commercial Communications
Bus & Motor
ELITEBUS, Unknown motor
Mass
860 kg wet, 700 kg dry
Launch date (UTC)
2017-10-09 (8 years ago)
Launch vehicle
FALCON 9
Launch site
Air Force Western Test Range (AFWTR)
Object type
Payload
Rocket body
Debris
Shape & HBR
Trap Box + 2 Pan, 4.8 m
Radar Cross Section
10.154 m², Large (>1 m²)

Expand to show TLE details & history
Last TLE update: 7 hours ago

TLE from 7 hours ago
0 IRIDIUM 139
1 42963U 17061J   26038.14160481  .00000232  00000-0  75787-4 0  9998
2 42963  86.3922  79.6986 0002143  90.4325 269.7116 14.34217719436200
Epoch: 2026-02-07T03:23Z
TLE epoch observation values (Epoch: 2026-02-07T03:23:54.655Z)
Latitude
-0.00007°
Longitude
-108.54852°
Altitude
780.726 km
Speed
7.463 km/s
True Right ascension
05h 18m 47s
True Declination
0° 00' 00"
Sunlit
Object was in full shadow at epoch
Visualization orbit readout
Latitude
Unknown
Longitude
Unknown
Altitude
Unknown
Speed
Unknown
Apparent Right ascension
Unknown
Apparent Declination
Unknown
Sunlit
N/A
Visualization observer readout
Local Sidereal Time
12:35:01
Azimuth
Unknown
Elevation
Unknown
Doppler factor
Unknown
Orbital elements
Apogee altitude
776.165 km
Perigee altitude
773.099 km
Semi-major axis
7,152.769 km
Eccentricity
0.00021
Inclination
86.3922°
RAAN
79.6986°
Arg. of periapsis
90.4325°
True anomaly
269.68704°
Mean anomaly
269.7116°
Eccentric anomaly
269.69932°
Mean motion
3.58783 °/min
Orbital period
100.34 mins
BSTAR
0.000075787
Loading maneuver chart data...
Computing Atmospheric mass density...
Loading historical data...
Loading historical data...
Loading historical data...
Loading historical data...
Loading historical data...
Loading historical data...
Loading historical data...

Documentation

Showing up to 5 results
|